| time (UTC) | temp F | wind direction | speed MPH | gust MPH | rain 1hr in | rain 24hr in | rain mn in | humidity % | barometer mb |
| 20260502214535 | 52 | 278 | 5.0 | 8.0 | 0.00 | 0.13 | 0.13 | 57 | 1010.3 |
| 20260502213531 | 52 | 275 | 1.0 | 3.0 | 0.00 | 0.13 | 0.13 | 57 | 1010.3 |
| 20260502212527 | 52 | 276 | 6.0 | 10.0 | 0.00 | 0.13 | 0.13 | 54 | 1010.2 |
| 20260502211522 | 53 | 266 | 6.0 | 11.0 | 0.00 | 0.13 | 0.13 | 51 | 1010.2 |
| 20260502210518 | 55 | 267 | 6.0 | 11.0 | 0.00 | 0.13 | 0.13 | 50 | 1009.9 |
| 20260502205535 | 54 | 279 | 9.0 | 18.0 | 0.00 | 0.13 | 0.13 | 52 | 1010.1 |
| 20260502204530 | 54 | 241 | 5.0 | 11.0 | 0.00 | 0.13 | 0.13 | 52 | 1010.0 |
| 20260502203526 | 52 | 263 | 6.0 | 10.0 | 0.00 | 0.13 | 0.13 | 54 | 1010.2 |
| 20260502202522 | 53 | 279 | 6.0 | 10.0 | 0.00 | 0.13 | 0.13 | 53 | 1010.2 |
| 20260502201519 | 53 | 251 | 4.0 | 8.0 | 0.00 | 0.13 | 0.13 | 56 | 1010.2 |
| 20260502200555 | 53 | 283 | 6.0 | 11.0 | 0.00 | 0.13 | 0.13 | 56 | 1010.2 |
| 20260502195531 | 53 | 256 | 5.0 | 10.0 | 0.00 | 0.13 | 0.13 | 56 | 1010.3 |
| 20260502194526 | 53 | 333 | 3.0 | 6.0 | 0.00 | 0.13 | 0.13 | 71 | 1010.4 |
| 20260502193522 | 52 | 105 | 2.0 | 6.0 | 0.00 | 0.13 | 0.13 | 75 | 1010.5 |
| 20260502192518 | 51 | 111 | 2.0 | 3.0 | 0.00 | 0.13 | 0.13 | 78 | 1010.7 |
| 20260502191534 | 51 | 148 | 1.0 | 3.0 | 0.00 | 0.13 | 0.13 | 79 | 1010.6 |
| 20260502190550 | 50 | 57 | 2.0 | 4.0 | 0.00 | 0.13 | 0.13 | 80 | 1010.8 |
| 20260502185607 | 50 | 51 | 2.0 | 3.0 | 0.00 | 0.13 | 0.13 | 80 | 1010.8 |
| 20260502183520 | 50 | 58 | 4.0 | 6.0 | 0.00 | 0.13 | 0.13 | 83 | 1011.1 |
| 20260502182515 | 48 | 61 | 2.0 | 4.0 | 0.00 | 0.13 | 0.13 | 86 | 1011.3 |
| 20260502181532 | 49 | 43 | 1.0 | 2.0 | 0.00 | 0.13 | 0.13 | 83 | 1011.3 |
| 20260502180528 | 49 | 337 | 1.0 | 3.0 | 0.00 | 0.13 | 0.13 | 85 | 1011.3 |
| 20260502163534 | 47 | 207 | 2.0 | 3.0 | 0.02 | 0.11 | 0.11 | 92 | 1011.8 |
| 20260502162530 | 47 | 190 | 2.0 | 6.0 | 0.00 | 0.09 | 0.09 | 91 | 1011.7 |
| 20260502161547 | 46 | 151 | 4.0 | 7.0 | 0.00 | 0.09 | 0.09 | 91 | 1011.7 |
| 20260502160523 | 47 | 167 | 4.0 | 8.0 | 0.00 | 0.09 | 0.09 | 88 | 1011.8 |
| 20260502151521 | 46 | 320 | 1.0 | 3.0 | 0.00 | 0.09 | 0.09 | 92 | 1011.9 |
| 20260502150517 | 46 | 315 | 4.0 | 7.0 | 0.00 | 0.09 | 0.09 | 88 | 1012.0 |
| 20260502130550 | 44 | 30 | 2.0 | 4.0 | 0.00 | 0.09 | 0.09 | 94 | 1012.1 |
| 20260502123518 | 44 | 40 | 4.0 | 7.0 | 0.00 | 0.09 | 0.09 | 99 | 1012.0 |
| 20260502122534 | 44 | 325 | 1.0 | 6.0 | 0.00 | 0.09 | 0.09 | 99 | 1012.0 |
| 20260502121531 | 44 | 360 | 2.0 | 3.0 | 0.00 | 0.09 | 0.09 | 99 | 1012.1 |
| 20260502120526 | 43 | 3 | 1.0 | 3.0 | 0.00 | 0.09 | 0.09 | 99 | 1011.9 |
| 20260502115522 | 43 | 338 | 3.0 | 7.0 | 0.00 | 0.09 | 0.09 | 99 | 1011.8 |
| 20260502114519 | 43 | 355 | 1.0 | 4.0 | 0.00 | 0.09 | 0.09 | 99 | 1011.6 |
| 20260502113515 | 44 | 13 | 2.0 | 3.0 | 0.00 | 0.09 | 0.09 | 99 | 1011.7 |
| 20260502112551 | 45 | 50 | 1.0 | 3.0 | 0.00 | 0.09 | 0.09 | 99 | 1011.6 |
| 20260502111526 | 45 | 0.0 | 0.0 | 0.00 | 0.09 | 0.09 | 99 | 1011.5 | |
| 20260502110525 | 45 | 0.0 | 0.0 | 0.00 | 0.09 | 0.09 | 99 | 1011.4 | |
| 20260502105518 | 44 | 0.0 | 0.0 | 0.00 | 0.09 | 0.09 | 99 | 1011.4 | |
| 20260502104534 | 44 | 0.0 | 0.0 | 0.01 | 0.09 | 0.09 | 99 | 1011.4 | |
| 20260502103531 | 44 | 0.0 | 0.0 | 0.01 | 0.09 | 0.09 | 99 | 1011.4 | |
| 20260502102547 | 44 | 0.0 | 0.0 | 0.01 | 0.09 | 0.09 | 99 | 1011.4 | |
| 20260502101523 | 44 | 0.0 | 0.0 | 0.01 | 0.09 | 0.09 | 99 | 1011.1 | |
| 20260502100519 | 44 | 0.0 | 0.0 | 0.02 | 0.09 | 0.09 | 99 | 1011.1 | |
| 20260502091522 | 44 | 0.0 | 0.0 | 0.01 | 0.08 | 0.08 | 99 | 1011.1 | |
| 20260502090518 | 44 | 0.0 | 0.0 | 0.00 | 0.07 | 0.07 | 99 | 1011.1 | |
| 20260502071536 | 44 | 0.0 | 0.0 | 0.03 | 0.07 | 0.07 | 98 | 1011.2 | |
| 20260502070612 | 44 | 0.0 | 0.0 | 0.03 | 0.07 | 0.07 | 98 | 1011.3 | |
| 20260502065527 | 44 | 0.0 | 0.0 | 0.03 | 0.07 | 0.07 | 97 | 1011.2 | |
| 20260502064523 | 44 | 0.0 | 0.0 | 0.03 | 0.06 | 0.06 | 97 | 1011.5 | |
| 20260502063519 | 44 | 0.0 | 0.0 | 0.03 | 0.05 | 0.05 | 96 | 1011.5 | |
| 20260502062535 | 44 | 0.0 | 0.0 | 0.02 | 0.04 | 0.04 | 96 | 1011.5 | |
| 20260502061532 | 44 | 0.0 | 0.0 | 0.02 | 0.04 | 0.04 | 95 | 1011.5 | |
| 20260502060548 | 44 | 0.0 | 0.0 | 0.02 | 0.04 | 0.04 | 95 | 1011.6 | |
| 20260502055524 | 45 | 0.0 | 0.0 | 0.03 | 0.04 | 0.04 | 94 | 1011.9 | |
| 20260502054541 | 45 | 176 | 0.0 | 2.0 | 0.02 | 0.03 | 0.03 | 94 | 1011.8 |
| 20260502053516 | 45 | 221 | 0.0 | 2.0 | 0.01 | 0.02 | 0.02 | 94 | 1011.7 |
| 20260502052532 | 45 | 0.0 | 0.0 | 0.01 | 0.02 | 0.02 | 94 | 1011.8 | |
| 20260502051528 | 45 | 250 | 0.0 | 1.0 | 0.02 | 0.02 | 0.02 | 94 | 1011.9 |
| 20260502050525 | 45 | 0.0 | 0.0 | 0.02 | 0.02 | 0.02 | 94 | 1012.0 | |
| 20260502045529 | 45 | 161 | 0.0 | 2.0 | 0.01 | 0.01 | 0.01 | 94 | 1011.8 |
| 20260502044525 | 46 | 0.0 | 0.0 | 0.01 | 0.01 | 0.01 | 93 | 1011.9 | |
| 20260502043521 | 46 | 0.0 | 0.0 | 0.01 | 0.01 | 0.01 | 91 | 1012.1 | |
| 20260502042517 | 46 | 0.0 | 0.0 | 0.01 | 0.01 | 0.01 | 88 | 1011.9 | |
| 20260502041534 | 47 | 0.0 | 0.0 | 0.00 | 0.00 | 0.00 | 87 | 1011.8 | |
| 20260502040530 | 48 | 0.0 | 0.0 | 0.00 | 0.00 | 0.00 | 84 | 1011.9 | |
| 20260502035526 | 47 | 0.0 | 0.0 | 0.00 | 0.00 | 0.00 | 82 | 1011.8 | |
| 20260502034541 | 48 | 267 | 2.0 | 4.0 | 0.00 | 0.00 | 0.00 | 73 | 1011.7 |
| 20260502033517 | 48 | 212 | 1.0 | 2.0 | 0.00 | 0.00 | 0.00 | 77 | 1011.7 |
| 20260502032533 | 48 | 296 | 1.0 | 3.0 | 0.00 | 0.00 | 0.00 | 75 | 1011.6 |
| 20260502031529 | 50 | 298 | 1.0 | 3.0 | 0.00 | 0.00 | 0.00 | 68 | 1011.6 |
| 20260502030545 | 50 | 282 | 0.0 | 3.0 | 0.00 | 0.00 | 0.00 | 71 | 1011.7 |
| 20260502025520 | 51 | 278 | 1.0 | 2.0 | 0.00 | 0.00 | 0.00 | 65 | 1011.6 |
| 20260502024536 | 51 | 266 | 3.0 | 4.0 | 0.00 | 0.00 | 0.00 | 61 | 1011.6 |
| 20260502023532 | 52 | 246 | 2.0 | 8.0 | 0.00 | 0.00 | 0.00 | 59 | 1011.6 |
| 20260502022528 | 52 | 333 | 5.0 | 9.0 | 0.00 | 0.00 | 0.00 | 57 | 1011.6 |
| 20260502021524 | 52 | 119 | 2.0 | 4.0 | 0.00 | 0.00 | 0.00 | 55 | 1011.2 |
| 20260502020521 | 53 | 305 | 0.0 | 1.0 | 0.00 | 0.00 | 0.00 | 54 | 1011.3 |
| 20260502015516 | 53 | 18 | 2.0 | 6.0 | 0.00 | 0.00 | 0.00 | 55 | 1011.1 |
| 20260502014532 | 52 | 299 | 3.0 | 7.0 | 0.00 | 0.00 | 0.00 | 56 | 1011.2 |
| 20260502013528 | 53 | 44 | 2.0 | 3.0 | 0.00 | 0.00 | 0.00 | 51 | 1011.1 |
| 20260502012603 | 52 | 66 | 3.0 | 4.0 | 0.00 | 0.01 | 0.00 | 56 | 1011.0 |
| 20260502011519 | 51 | 0.0 | 0.0 | 0.00 | 0.01 | 0.00 | 62 | 1011.1 | |
| 20260502010535 | 52 | 221 | 1.0 | 2.0 | 0.00 | 0.01 | 0.00 | 57 | 1011.2 |
| 20260502005531 | 51 | 0.0 | 0.0 | 0.00 | 0.01 | 0.00 | 65 | 1010.9 | |
| 20260502004527 | 52 | 263 | 0.0 | 4.0 | 0.00 | 0.01 | 0.00 | 55 | 1010.9 |
| 20260502003523 | 53 | 186 | 1.0 | 2.0 | 0.00 | 0.01 | 0.00 | 58 | 1010.8 |
| 20260502002519 | 53 | 326 | 2.0 | 4.0 | 0.00 | 0.01 | 0.00 | 53 | 1010.7 |
| 20260502001516 | 53 | 237 | 1.0 | 3.0 | 0.00 | 0.01 | 0.00 | 55 | 1010.6 |
| 20260502000532 | 54 | 0.0 | 0.0 | 0.00 | 0.01 | 0.00 | 53 | 1010.2 | |
| 20260501235528 | 54 | 264 | 0.0 | 1.0 | 0.00 | 0.01 | 0.00 | 49 | 1010.2 |
| 20260501234545 | 54 | 0.0 | 0.0 | 0.00 | 0.01 | 0.00 | 47 | 1010.1 | |
| 20260501233601 | 55 | 0.0 | 0.0 | 0.00 | 0.04 | 0.00 | 45 | 1009.8 | |
| 20260501232537 | 55 | 0.0 | 0.0 | 0.00 | 0.16 | 0.00 | 45 | 1009.8 | |
| 20260501231613 | 55 | 0.0 | 0.0 | 0.00 | 0.21 | 0.00 | 45 | 1009.6 | |
| 20260501230529 | 55 | 29 | 1.0 | 2.0 | 0.00 | 0.23 | 0.00 | 43 | 1009.5 |
| 20260501225525 | 56 | 4 | 0.0 | 3.0 | 0.00 | 0.24 | 0.00 | 44 | 1009.5 |
| 20260501224521 | 57 | 32 | 3.0 | 4.0 | 0.00 | 0.24 | 0.00 | 41 | 1009.3 |
| 20260501223517 | 57 | 66 | 0.0 | 2.0 | 0.00 | 0.24 | 0.00 | 40 | 1009.3 |
| 20260501222533 | 57 | 326 | 1.0 | 3.0 | 0.00 | 0.24 | 0.00 | 40 | 1009.4 |
| 20260501221610 | 57 | 313 | 1.0 | 3.0 | 0.00 | 0.24 | 0.00 | 40 | 1009.2 |
| 20260501220526 | 57 | 308 | 2.0 | 4.0 | 0.00 | 0.24 | 0.00 | 39 | 1009.3 |
| 20260501215522 | 58 | 278 | 2.0 | 4.0 | 0.00 | 0.24 | 0.00 | 39 | 1009.3 |